User: anonymous   Login
Location: Chenango Forks
(42.2242°N, 75.8278°W)
Time: 20:19:33
(UTC-04:00)
Language:

Okean 3 Rocket - Orbit

View from above orbital plane
View from above orbital plane
View from above satellite
View from above satellite

Ground track
Ground track

The orbit data is extracted from the following two-line orbital elements,

1 21398U 91039B   17175.59350455 +.00000110 +00000-0 +11488-4 0  9990
2 21398 082.5224 219.2925 0022127 154.7219 357.9025 14.79666560383961
Epoch (UTC): 24 June 2017 14:14:38
Eccentricity: 0.0022127
inclination: 82.5224°
perigee height: 615 km
apogee height: 646 km
right ascension of ascending node: 219.2925°
argument of perigee: 154.7219°
revolutions per day: 14.79666560
mean anomaly at epoch: 357.9025°
orbit number at epoch: 38396

The dashed part of the orbit path shows where the satellite is in the earth's shadow,  

DLR